| time (UTC) | temp F | wind direction | speed MPH | gust MPH | rain 1hr in | rain 24hr in | rain mn in | humidity % | barometer mb |
| 20260905203036 | 99 | 170 | 3.0 | 7.0 | 0.00 | 0.00 | 0.00 | 46 | 1008.4 |
| 20260905201534 | 100 | 328 | 1.0 | 4.0 | 0.00 | 0.00 | 0.00 | 45 | 1008.5 |
| 20260905200038 | 99 | 319 | 1.0 | 5.0 | 0.00 | 0.00 | 0.00 | 45 | 1008.7 |
| 20260905194528 | 99 | 354 | 0.0 | 5.0 | 0.00 | 0.00 | 0.00 | 47 | 1009.0 |
| 20260905193024 | 97 | 59 | 0.0 | 4.0 | 0.00 | 0.00 | 0.00 | 48 | 1009.1 |
| 20260905191526 | 96 | 73 | 2.0 | 4.0 | 0.00 | 0.00 | 0.00 | 50 | 1009.2 |
| 20260905190019 | 95 | 131 | 0.0 | 3.0 | 0.00 | 0.00 | 0.00 | 53 | 1009.3 |
| 20260905184541 | 95 | 131 | 0.0 | 3.0 | 0.00 | 0.00 | 0.00 | 54 | 1009.4 |
| 20260905183036 | 95 | 131 | 2.0 | 5.0 | 0.00 | 0.00 | 0.00 | 53 | 1009.6 |
| 20260905181521 | 95 | 119 | 2.0 | 7.0 | 0.00 | 0.00 | 0.00 | 55 | 1009.7 |
| 20260905180019 | 95 | 120 | 1.0 | 5.0 | 0.00 | 0.00 | 0.00 | 55 | 1009.9 |
| 20260905174512 | 94 | 101 | 1.0 | 6.0 | 0.00 | 0.00 | 0.00 | 58 | 1010.1 |
| 20260905173011 | 94 | 70 | 1.0 | 5.0 | 0.00 | 0.00 | 0.00 | 59 | 1010.4 |
| 20260905171509 | 93 | 66 | 2.0 | 4.0 | 0.00 | 0.00 | 0.00 | 61 | 1010.4 |
| 20260905170005 | 92 | 64 | 2.0 | 4.0 | 0.00 | 0.00 | 0.00 | 62 | 1010.6 |
| 20260905164503 | 91 | 74 | 2.0 | 4.0 | 0.00 | 0.00 | 0.00 | 63 | 1010.7 |
| 20260905163003 | 91 | 81 | 1.0 | 3.0 | 0.00 | 0.00 | 0.00 | 63 | 1010.6 |
| 20260905161559 | 90 | 85 | 1.0 | 3.0 | 0.00 | 0.00 | 0.00 | 64 | 1010.6 |
| 20260905160056 | 90 | 85 | 2.0 | 5.0 | 0.00 | 0.00 | 0.00 | 64 | 1010.6 |
| 20260905154613 | 89 | 104 | 1.0 | 3.0 | 0.00 | 0.00 | 0.00 | 65 | 1010.4 |
| 20260905153050 | 88 | 104 | 0.0 | 4.0 | 0.00 | 0.00 | 0.00 | 67 | 1010.2 |
| 20260905151545 | 86 | 141 | 1.0 | 3.0 | 0.00 | 0.00 | 0.00 | 69 | 1010.1 |
| 20260905150043 | 85 | 122 | 0.0 | 4.0 | 0.00 | 0.00 | 0.00 | 69 | 1010.2 |
| 20260905144541 | 84 | 130 | 0.0 | 4.0 | 0.00 | 0.00 | 0.00 | 72 | 1010.1 |
| 20260905143037 | 83 | 104 | 0.0 | 5.0 | 0.00 | 0.00 | 0.00 | 73 | 1010.0 |
| 20260905141533 | 80 | 230 | 0.0 | 2.0 | 0.00 | 0.00 | 0.00 | 81 | 1010.1 |
| 20260905140030 | 79 | 230 | 0.0 | 0.0 | 0.00 | 0.00 | 0.00 | 84 | 1010.0 |
| 20260905134525 | 78 | 230 | 0.0 | 0.0 | 0.00 | 0.00 | 0.00 | 86 | 1010.0 |
| 20260905133036 | 76 | 230 | 0.0 | 0.0 | 0.00 | 0.00 | 0.00 | 90 | 1009.8 |
| 20260905131520 | 75 | 229 | 0.0 | 0.0 | 0.00 | 0.00 | 0.00 | 92 | 1009.7 |
| 20260905130019 | 74 | 229 | 0.0 | 0.0 | 0.00 | 0.00 | 0.00 | 93 | 1009.5 |
| 20260905124518 | 72 | 229 | 0.0 | 0.0 | 0.00 | 0.00 | 0.00 | 94 | 1009.4 |
| 20260905123015 | 71 | 183 | 0.0 | 1.0 | 0.00 | 0.00 | 0.00 | 94 | 1009.2 |
| 20260905121515 | 71 | 107 | 0.0 | 0.0 | 0.00 | 0.00 | 0.00 | 93 | 1009.2 |
| 20260905120016 | 71 | 107 | 0.0 | 3.0 | 0.00 | 0.00 | 0.00 | 93 | 1009.0 |
| 20260905114511 | 71 | 107 | 0.0 | 0.0 | 0.00 | 0.00 | 0.00 | 93 | 1008.7 |
| 20260905113010 | 71 | 107 | 0.0 | 0.0 | 0.00 | 0.00 | 0.00 | 93 | 1008.6 |
| 20260905111513 | 71 | 107 | 0.0 | 0.0 | 0.00 | 0.00 | 0.00 | 93 | 1008.5 |
| 20260905110028 | 71 | 107 | 0.0 | 0.0 | 0.00 | 0.00 | 0.00 | 93 | 1008.5 |
| 20260905104508 | 71 | 107 | 0.0 | 0.0 | 0.00 | 0.00 | 0.00 | 92 | 1008.4 |
| 20260905103010 | 71 | 107 | 0.0 | 0.0 | 0.00 | 0.00 | 0.00 | 92 | 1008.4 |
| 20260905101506 | 72 | 107 | 0.0 | 0.0 | 0.00 | 0.00 | 0.00 | 92 | 1008.3 |
| 20260905100005 | 72 | 107 | 0.0 | 0.0 | 0.00 | 0.00 | 0.00 | 92 | 1008.1 |
| 20260905094504 | 72 | 107 | 0.0 | 0.0 | 0.00 | 0.00 | 0.00 | 91 | 1008.3 |
| 20260905093003 | 72 | 107 | 0.0 | 0.0 | 0.00 | 0.00 | 0.00 | 91 | 1008.4 |
| 20260905091503 | 72 | 107 | 0.0 | 0.0 | 0.00 | 0.00 | 0.00 | 91 | 1008.5 |
| 20260905090003 | 72 | 107 | 0.0 | 0.0 | 0.00 | 0.00 | 0.00 | 91 | 1008.4 |
| 20260905084606 | 72 | 107 | 0.0 | 0.0 | 0.00 | 0.00 | 0.00 | 90 | 1008.4 |
| 20260905083058 | 73 | 107 | 0.0 | 0.0 | 0.00 | 0.00 | 0.00 | 90 | 1008.3 |
| 20260905081558 | 73 | 107 | 0.0 | 0.0 | 0.00 | 0.00 | 0.00 | 90 | 1008.3 |
| 20260905080110 | 73 | 107 | 0.0 | 0.0 | 0.00 | 0.00 | 0.00 | 90 | 1008.2 |
| 20260905074556 | 73 | 107 | 0.0 | 0.0 | 0.00 | 0.00 | 0.00 | 89 | 1008.2 |
| 20260905073056 | 74 | 107 | 0.0 | 0.0 | 0.00 | 0.00 | 0.00 | 89 | 1008.3 |
| 20260905071555 | 74 | 107 | 0.0 | 0.0 | 0.00 | 0.00 | 0.00 | 88 | 1008.3 |
| 20260905070051 | 74 | 107 | 0.0 | 0.0 | 0.00 | 0.00 | 0.00 | 88 | 1008.4 |
| 20260905064550 | 75 | 107 | 0.0 | 0.0 | 0.00 | 0.00 | 0.00 | 87 | 1008.5 |
| 20260905063048 | 75 | 107 | 0.0 | 0.0 | 0.00 | 0.00 | 0.00 | 88 | 1008.5 |
| 20260905061547 | 75 | 107 | 0.0 | 0.0 | 0.00 | 0.00 | 0.00 | 87 | 1008.6 |
| 20260905060046 | 76 | 107 | 0.0 | 0.0 | 0.00 | 0.00 | 0.00 | 87 | 1008.7 |
| 20260905054543 | 76 | 107 | 0.0 | 0.0 | 0.00 | 0.00 | 0.00 | 87 | 1008.4 |
| 20260905053044 | 76 | 107 | 0.0 | 0.0 | 0.00 | 0.00 | 0.00 | 85 | 1008.4 |
| 20260905051544 | 77 | 107 | 0.0 | 0.0 | 0.00 | 0.00 | 0.00 | 85 | 1008.4 |
| 20260905050039 | 77 | 107 | 0.0 | 0.0 | 0.00 | 0.00 | 0.00 | 84 | 1008.4 |
| 20260905044540 | 78 | 107 | 0.0 | 0.0 | 0.00 | 0.00 | 0.00 | 84 | 1008.4 |
| 20260905043051 | 78 | 107 | 0.0 | 0.0 | 0.00 | 0.00 | 0.00 | 83 | 1008.4 |
| 20260905041538 | 79 | 107 | 0.0 | 0.0 | 0.00 | 0.00 | 0.00 | 82 | 1008.4 |
| 20260905040041 | 79 | 107 | 0.0 | 0.0 | 0.00 | 0.00 | 0.00 | 82 | 1008.3 |
| 20260905034540 | 80 | 107 | 0.0 | 0.0 | 0.00 | 0.00 | 0.00 | 81 | 1008.4 |
| 20260905033105 | 80 | 107 | 0.0 | 0.0 | 0.00 | 0.00 | 0.00 | 81 | 1008.2 |
| 20260905031550 | 81 | 107 | 0.0 | 0.0 | 0.00 | 0.00 | 0.00 | 79 | 1008.2 |
| 20260905030050 | 81 | 107 | 0.0 | 0.0 | 0.00 | 0.00 | 0.00 | 78 | 1008.0 |
| 20260905024537 | 82 | 107 | 0.0 | 0.0 | 0.00 | 0.00 | 0.00 | 77 | 1007.9 |
| 20260905023036 | 83 | 107 | 0.0 | 0.0 | 0.00 | 0.00 | 0.00 | 76 | 1007.6 |
| 20260905021535 | 83 | 107 | 0.0 | 0.0 | 0.00 | 0.00 | 0.00 | 75 | 1007.5 |
| 20260905020038 | 84 | 107 | 0.0 | 0.0 | 0.00 | 0.00 | 0.00 | 74 | 1007.3 |
| 20260905014533 | 85 | 107 | 0.0 | 0.0 | 0.00 | 0.00 | 0.00 | 74 | 1007.2 |
| 20260905013036 | 86 | 107 | 0.0 | 0.0 | 0.00 | 0.00 | 0.00 | 72 | 1007.0 |
| 20260905011536 | 87 | 107 | 0.0 | 0.0 | 0.00 | 0.00 | 0.00 | 70 | 1006.9 |
| 20260905010040 | 88 | 107 | 0.0 | 0.0 | 0.00 | 0.00 | 0.00 | 69 | 1006.8 |
| 20260905004533 | 90 | 108 | 0.0 | 0.0 | 0.00 | 0.00 | 0.00 | 66 | 1006.8 |
| 20260905003033 | 92 | 108 | 0.0 | 1.0 | 0.00 | 0.00 | 0.00 | 63 | 1006.9 |
| 20260905001531 | 95 | 108 | 0.0 | 0.0 | 0.00 | 0.00 | 0.00 | 56 | 1006.8 |
| 20260905000030 | 96 | 108 | 0.0 | 0.0 | 0.00 | 0.00 | 0.00 | 53 | 1006.8 |
| 20260904234528 | 97 | 108 | 0.0 | 2.0 | 0.00 | 0.00 | 0.00 | 51 | 1006.9 |
| 20260904233031 | 97 | 108 | 0.0 | 0.0 | 0.00 | 0.00 | 0.00 | 50 | 1007.0 |
| 20260904231536 | 97 | 108 | 2.0 | 4.0 | 0.00 | 0.00 | 0.00 | 49 | 1007.1 |
| 20260904230049 | 98 | 114 | 1.0 | 5.0 | 0.00 | 0.00 | 0.00 | 49 | 1007.1 |
| 20260904224526 | 98 | 179 | 0.0 | 5.0 | 0.00 | 0.00 | 0.00 | 48 | 1007.1 |
| 20260904223027 | 98 | 217 | 2.0 | 5.0 | 0.00 | 0.00 | 0.00 | 47 | 1007.1 |
| 20260904221526 | 98 | 243 | 3.0 | 8.0 | 0.00 | 0.00 | 0.00 | 46 | 1007.1 |
| 20260904220028 | 99 | 192 | 1.0 | 6.0 | 0.00 | 0.00 | 0.00 | 46 | 1007.1 |
| 20260904214522 | 98 | 219 | 1.0 | 8.0 | 0.00 | 0.00 | 0.00 | 47 | 1007.1 |
| 20260904213029 | 98 | 227 | 3.0 | 12.0 | 0.00 | 0.00 | 0.00 | 47 | 1007.2 |
| 20260904211522 | 98 | 241 | 3.0 | 8.0 | 0.00 | 0.00 | 0.00 | 48 | 1007.4 |
| 20260904210021 | 98 | 193 | 1.0 | 11.0 | 0.00 | 0.00 | 0.00 | 49 | 1007.5 |
| 20260904204526 | 97 | 217 | 2.0 | 10.0 | 0.00 | 0.00 | 0.00 | 48 | 1007.6 |